contact:dominique.lefevre@mio.osupytheas.fr, maurice.libes@osupytheas.fr, didier.mallarino@osupytheas.fr
Project:EMSO http://www.emso-fr.org/EMSO-France
Depth: 2436.0 m
Title:EMSO Ligure Ouest : Data MII capteur CSTAR
DateTime,Latitude,Longitude,Instrument_Serial,Reference_Counts,Signal_Counts,Corrected_Signal_raw_counts,Calculated_Beam_c_inverse_meters,Internal_thermistor_counts
DateTime,Latitude,Longitude,Instrument_Serial,Reference_Counts,Signal_Counts,Corrected_Signal_raw_counts,Calculated_Beam_c_inverse_meters,Internal_thermistor_counts
2019-05-29T00:00:18,42.805,6.029,CST-1368DR,9307,13018,15562,0.014,551
2019-05-29T00:03:19,42.805,6.029,CST-1368DR,9307,13017,15561,0.014,551
2019-05-29T00:06:21,42.805,6.029,CST-1368DR,9307,13018,15561,0.014,550
2019-05-29T00:09:22,42.805,6.029,CST-1368DR,9307,13021,15565,0.013,551
2019-05-29T00:12:23,42.805,6.029,CST-1368DR,9307,13018,15561,0.014,551
2019-05-29T00:15:25,42.805,6.029,CST-1368DR,9307,13018,15562,0.014,551
2019-05-29T00:18:26,42.805,6.029,CST-1368DR,9307,13017,15560,0.014,551
2019-05-29T00:21:28,42.805,6.029,CST-1368DR,9307,13021,15564,0.013,551
2019-05-29T00:24:29,42.805,6.029,CST-1368DR,9307,13016,15559,0.015,550
2019-05-29T00:27:30,42.805,6.029,CST-1368DR,9307,13020,15563,0.014,551
2019-05-29T00:30:32,42.805,6.029,CST-1368DR,9307,13022,15566,0.013,551
2019-05-29T00:33:33,42.805,6.029,CST-1368DR,9307,13022,15566,0.013,551
2019-05-29T00:36:35,42.805,6.029,CST-1368DR,9307,13021,15565,0.013,551
2019-05-29T00:39:36,42.805,6.029,CST-1368DR,9307,13020,15563,0.014,551
2019-05-29T00:42:38,42.805,6.029,CST-1368DR,9306,13021,15566,0.013,551
2019-05-29T00:45:39,42.805,6.029,CST-1368DR,9306,13017,15562,0.014,550
2019-05-29T00:48:40,42.805,6.029,CST-1368DR,9306,13020,15565,0.013,551
2019-05-29T00:51:42,42.805,6.029,CST-1368DR,9306,13022,15568,0.012,550
2019-05-29T00:54:43,42.805,6.029,CST-1368DR,9306,13021,15567,0.013,551
2019-05-29T00:57:45,42.805,6.029,CST-1368DR,9306,13018,15563,0.014,551
2019-05-29T01:00:46,42.805,6.029,CST-1368DR,9306,13017,15561,0.014,551
2019-05-29T01:03:47,42.805,6.029,CST-1368DR,9306,13020,15565,0.013,551
2019-05-29T01:06:49,42.805,6.029,CST-1368DR,9306,13014,15558,0.015,551
2019-05-29T01:09:50,42.805,6.029,CST-1368DR,9306,13016,15560,0.014,551
2019-05-29T01:12:52,42.805,6.029,CST-1368DR,9306,13016,15561,0.014,550
2019-05-29T01:15:53,42.805,6.029,CST-1368DR,9306,13014,15558,0.015,551
2019-05-29T01:18:54,42.805,6.029,CST-1368DR,9306,13021,15567,0.013,551
2019-05-29T01:21:56,42.805,6.029,CST-1368DR,9306,13016,15560,0.014,551
2019-05-29T01:24:57,42.805,6.029,CST-1368DR,9306,13019,15564,0.013,551
2019-05-29T01:27:59,42.805,6.029,CST-1368DR,9306,13017,15562,0.014,551
2019-05-29T01:31:00,42.805,6.029,CST-1368DR,9306,13020,15565,0.013,551
2019-05-29T01:34:02,42.805,6.029,CST-1368DR,9306,13019,15564,0.013,551
2019-05-29T01:37:03,42.805,6.029,CST-1368DR,9306,13018,15563,0.014,551
2019-05-29T01:40:04,42.805,6.029,CST-1368DR,9306,13019,15564,0.013,551
2019-05-29T01:43:06,42.805,6.029,CST-1368DR,9306,13021,15566,0.013,551
2019-05-29T01:46:07,42.805,6.029,CST-1368DR,9306,13019,15564,0.013,551
2019-05-29T01:49:09,42.805,6.029,CST-1368DR,9306,13016,15560,0.014,551
2019-05-29T01:52:10,42.805,6.029,CST-1368DR,9306,13018,15562,0.014,551
2019-05-29T01:55:11,42.805,6.029,CST-1368DR,9306,13018,15562,0.014,551
2019-05-29T01:58:13,42.805,6.029,CST-1368DR,9306,13017,15561,0.014,551
2019-05-29T02:01:14,42.805,6.029,CST-1368DR,9306,13016,15560,0.014,550
2019-05-29T02:04:16,42.805,6.029,CST-1368DR,9306,13013,15557,0.015,551
2019-05-29T02:07:17,42.805,6.029,CST-1368DR,9306,13018,15563,0.014,551
2019-05-29T02:10:18,42.805,6.029,CST-1368DR,9306,13019,15564,0.013,550
2019-05-29T02:13:20,42.805,6.029,CST-1368DR,9306,13016,15561,0.014,551
2019-05-29T02:16:21,42.805,6.029,CST-1368DR,9306,13019,15564,0.013,551
2019-05-29T02:19:23,42.805,6.029,CST-1368DR,9306,13019,15564,0.013,551
2019-05-29T02:22:24,42.805,6.029,CST-1368DR,9305,13020,15567,0.013,550
2019-05-29T02:25:25,42.805,6.029,CST-1368DR,9305,13020,15566,0.013,551
2019-05-29T02:28:27,42.805,6.029,CST-1368DR,9305,13017,15564,0.013,551
2019-05-29T02:31:28,42.805,6.029,CST-1368DR,9305,13017,15563,0.014,551
2019-05-29T02:34:30,42.805,6.029,CST-1368DR,9305,13015,15561,0.014,551
2019-05-29T02:37:31,42.805,6.029,CST-1368DR,9305,13019,15565,0.013,551
2019-05-29T02:40:33,42.805,6.029,CST-1368DR,9305,13016,15562,0.014,551
2019-05-29T02:43:34,42.805,6.029,CST-1368DR,9305,13015,15561,0.014,551
2019-05-29T02:46:35,42.805,6.029,CST-1368DR,9305,13014,15559,0.015,550
2019-05-29T02:49:37,42.805,6.029,CST-1368DR,9305,13017,15564,0.013,551
2019-05-29T02:52:38,42.805,6.029,CST-1368DR,9305,13018,15564,0.013,551
2019-05-29T02:55:40,42.805,6.029,CST-1368DR,9305,13017,15564,0.013,551
2019-05-29T02:58:41,42.805,6.029,CST-1368DR,9305,13016,15562,0.014,551
2019-05-29T03:01:42,42.805,6.029,CST-1368DR,9305,13018,15564,0.013,551
2019-05-29T03:04:44,42.805,6.029,CST-1368DR,9305,13017,15563,0.014,551
2019-05-29T03:07:45,42.805,6.029,CST-1368DR,9305,13020,15566,0.013,551
2019-05-29T03:10:47,42.805,6.029,CST-1368DR,9305,13018,15564,0.013,551
2019-05-29T03:13:48,42.805,6.029,CST-1368DR,9305,13018,15564,0.013,551
2019-05-29T03:16:49,42.805,6.029,CST-1368DR,9305,13018,15564,0.013,550
2019-05-29T03:19:51,42.805,6.029,CST-1368DR,9305,13018,15564,0.013,551
2019-05-29T03:22:52,42.805,6.029,CST-1368DR,9305,13018,15564,0.013,551
2019-05-29T03:25:54,42.805,6.029,CST-1368DR,9305,13019,15565,0.013,551
2019-05-29T03:28:55,42.805,6.029,CST-1368DR,9305,13018,15565,0.013,551
2019-05-29T03:31:56,42.805,6.029,CST-1368DR,9305,13017,15563,0.014,551
2019-05-29T03:34:58,42.805,6.029,CST-1368DR,9305,13018,15564,0.013,551
2019-05-29T03:37:59,42.805,6.029,CST-1368DR,9305,13016,15562,0.014,551
2019-05-29T03:41:01,42.805,6.029,CST-1368DR,9305,13019,15566,0.013,551
2019-05-29T03:44:02,42.805,6.029,CST-1368DR,9305,13019,15566,0.013,551
2019-05-29T03:47:04,42.805,6.029,CST-1368DR,9305,13017,15563,0.014,551
2019-05-29T03:50:05,42.805,6.029,CST-1368DR,9305,13018,15564,0.013,551
2019-05-29T03:53:06,42.805,6.029,CST-1368DR,9305,13018,15564,0.013,551
2019-05-29T03:56:08,42.805,6.029,CST-1368DR,9305,13018,15564,0.013,551
2019-05-29T03:59:09,42.805,6.029,CST-1368DR,9305,13019,15565,0.013,551
2019-05-29T04:02:11,42.805,6.029,CST-1368DR,9305,13019,15565,0.013,551
2019-05-29T04:05:12,42.805,6.029,CST-1368DR,9305,13015,15561,0.014,550
2019-05-29T04:08:13,42.805,6.029,CST-1368DR,9305,13018,15564,0.013,550
2019-05-29T04:11:15,42.805,6.029,CST-1368DR,9305,13018,15564,0.013,551
2019-05-29T04:14:16,42.805,6.029,CST-1368DR,9304,13017,15564,0.013,551
2019-05-29T04:17:18,42.805,6.029,CST-1368DR,9304,13016,15563,0.014,551
2019-05-29T04:20:19,42.805,6.029,CST-1368DR,9304,13017,15564,0.013,551
2019-05-29T04:23:20,42.805,6.029,CST-1368DR,9304,13018,15565,0.013,551
2019-05-29T04:26:22,42.805,6.029,CST-1368DR,9304,13016,15564,0.013,551
2019-05-29T04:29:23,42.805,6.029,CST-1368DR,9304,13018,15566,0.013,551
2019-05-29T04:32:25,42.805,6.029,CST-1368DR,9304,13017,15565,0.013,551
2019-05-29T04:35:26,42.805,6.029,CST-1368DR,9304,13017,15565,0.013,551
2019-05-29T04:38:27,42.805,6.029,CST-1368DR,9304,13016,15563,0.014,551
2019-05-29T04:41:29,42.805,6.029,CST-1368DR,9304,13018,15566,0.013,551
2019-05-29T04:44:30,42.805,6.029,CST-1368DR,9304,13018,15566,0.013,551
2019-05-29T04:47:32,42.805,6.029,CST-1368DR,9304,13017,15564,0.013,551
2019-05-29T04:50:33,42.805,6.029,CST-1368DR,9304,13017,15564,0.013,551
2019-05-29T04:53:35,42.805,6.029,CST-1368DR,9304,13013,15560,0.014,551
2019-05-29T04:56:36,42.805,6.029,CST-1368DR,9304,13014,15561,0.014,551
2019-05-29T04:59:37,42.805,6.029,CST-1368DR,9304,13016,15564,0.013,550
2019-05-29T05:02:39,42.805,6.029,CST-1368DR,9304,13016,15563,0.014,551
2019-05-29T05:05:40,42.805,6.029,CST-1368DR,9304,13016,15564,0.013,551
2019-05-29T05:08:42,42.805,6.029,CST-1368DR,9304,13011,15557,0.015,551
2019-05-29T05:11:43,42.805,6.029,CST-1368DR,9304,13015,15562,0.014,551
2019-05-29T05:14:44,42.805,6.029,CST-1368DR,9304,13012,15558,0.015,551
2019-05-29T05:17:46,42.805,6.029,CST-1368DR,9304,13014,15561,0.014,551
2019-05-29T05:20:47,42.805,6.029,CST-1368DR,9304,13016,15564,0.013,551
2019-05-29T05:23:49,42.805,6.029,CST-1368DR,9304,13016,15563,0.014,551
2019-05-29T05:26:50,42.805,6.029,CST-1368DR,9304,13015,15562,0.014,551
2019-05-29T05:29:51,42.805,6.029,CST-1368DR,9304,13018,15566,0.013,551
2019-05-29T05:32:53,42.805,6.029,CST-1368DR,9304,13016,15564,0.013,551
2019-05-29T05:35:54,42.805,6.029,CST-1368DR,9304,13014,15561,0.014,551
2019-05-29T05:38:56,42.805,6.029,CST-1368DR,9304,13015,15563,0.014,551
2019-05-29T05:41:57,42.805,6.029,CST-1368DR,9304,13012,15559,0.015,551
2019-05-29T05:44:59,42.805,6.029,CST-1368DR,9304,13016,15563,0.014,551
2019-05-29T05:48:00,42.805,6.029,CST-1368DR,9303,13017,15566,0.013,551
2019-05-29T05:51:01,42.805,6.029,CST-1368DR,9303,13014,15562,0.014,551
2019-05-29T05:54:03,42.805,6.029,CST-1368DR,9303,13014,15563,0.014,551
2019-05-29T05:57:04,42.805,6.029,CST-1368DR,9303,13014,15562,0.014,551
2019-05-29T06:00:06,42.805,6.029,CST-1368DR,9303,13014,15563,0.014,550
2019-05-29T06:03:07,42.805,6.029,CST-1368DR,9303,13013,15562,0.014,551
2019-05-29T06:06:08,42.805,6.029,CST-1368DR,9303,13013,15561,0.014,551
2019-05-29T06:09:10,42.805,6.029,CST-1368DR,9303,13016,15565,0.013,551
2019-05-29T06:12:11,42.805,6.029,CST-1368DR,9303,13016,15565,0.013,551
2019-05-29T06:15:13,42.805,6.029,CST-1368DR,9303,13015,15564,0.013,551
2019-05-29T06:18:14,42.805,6.029,CST-1368DR,9303,13014,15563,0.014,551
2019-05-29T06:21:15,42.805,6.029,CST-1368DR,9303,13015,15564,0.013,551
2019-05-29T06:24:17,42.805,6.029,CST-1368DR,9303,13017,15566,0.013,550
2019-05-29T06:27:18,42.805,6.029,CST-1368DR,9303,13014,15563,0.014,551
2019-05-29T06:30:20,42.805,6.029,CST-1368DR,9303,13015,15564,0.013,551
2019-05-29T06:33:21,42.805,6.029,CST-1368DR,9303,13012,15561,0.014,551
2019-05-29T06:36:22,42.805,6.029,CST-1368DR,9303,13016,15565,0.013,551
2019-05-29T06:39:24,42.805,6.029,CST-1368DR,9303,13013,15561,0.014,551
2019-05-29T06:42:25,42.805,6.029,CST-1368DR,9303,13014,15563,0.014,551
2019-05-29T06:45:27,42.805,6.029,CST-1368DR,9303,13015,15564,0.013,551
2019-05-29T06:48:28,42.805,6.029,CST-1368DR,9303,13014,15563,0.014,550
2019-05-29T06:51:30,42.805,6.029,CST-1368DR,9303,13014,15562,0.014,551
2019-05-29T06:54:31,42.805,6.029,CST-1368DR,9303,13015,15564,0.013,551
2019-05-29T06:57:32,42.805,6.029,CST-1368DR,9303,13015,15564,0.013,551
2019-05-29T07:00:34,42.805,6.029,CST-1368DR,9303,13016,15565,0.013,551
2019-05-29T07:03:35,42.805,6.029,CST-1368DR,9302,13014,15564,0.013,551
2019-05-29T07:06:37,42.805,6.029,CST-1368DR,9302,13015,15565,0.013,550
2019-05-29T07:09:38,42.805,6.029,CST-1368DR,9302,13016,15566,0.013,551
2019-05-29T07:12:39,42.805,6.029,CST-1368DR,9302,13015,15566,0.013,551
2019-05-29T07:15:41,42.805,6.029,CST-1368DR,9302,13014,15565,0.013,551
2019-05-29T07:18:42,42.805,6.029,CST-1368DR,9302,13013,15562,0.014,551
2019-05-29T07:21:44,42.805,6.029,CST-1368DR,9302,13015,15565,0.013,550
2019-05-29T07:24:45,42.805,6.029,CST-1368DR,9302,13013,15563,0.014,551
2019-05-29T07:27:46,42.805,6.029,CST-1368DR,9302,13015,15565,0.013,551
2019-05-29T07:30:48,42.805,6.029,CST-1368DR,9302,13015,15565,0.013,551
2019-05-29T07:33:49,42.805,6.029,CST-1368DR,9302,13014,15564,0.013,551
2019-05-29T07:36:51,42.805,6.029,CST-1368DR,9302,13014,15564,0.013,551
2019-05-29T07:39:52,42.805,6.029,CST-1368DR,9302,13013,15563,0.014,551
2019-05-29T07:42:53,42.805,6.029,CST-1368DR,9302,13014,15564,0.013,551
2019-05-29T07:45:55,42.805,6.029,CST-1368DR,9302,13014,15564,0.013,551
2019-05-29T07:48:56,42.805,6.029,CST-1368DR,9302,13013,15563,0.014,550
2019-05-29T07:51:58,42.805,6.029,CST-1368DR,9302,13010,15559,0.015,551
2019-05-29T07:54:59,42.805,6.029,CST-1368DR,9302,13013,15563,0.014,551
2019-05-29T07:58:01,42.805,6.029,CST-1368DR,9302,13011,15560,0.014,551
2019-05-29T08:01:02,42.805,6.029,CST-1368DR,9302,13014,15564,0.013,550
2019-05-29T08:04:03,42.805,6.029,CST-1368DR,9302,13013,15563,0.014,551
2019-05-29T08:07:05,42.805,6.029,CST-1368DR,9302,13014,15564,0.013,550
2019-05-29T08:10:06,42.805,6.029,CST-1368DR,9302,13014,15564,0.013,551
2019-05-29T08:13:08,42.805,6.029,CST-1368DR,9302,13013,15563,0.014,551
2019-05-29T08:16:09,42.805,6.029,CST-1368DR,9302,13012,15562,0.014,551
2019-05-29T08:19:10,42.805,6.029,CST-1368DR,9302,13011,15561,0.014,551
2019-05-29T08:22:12,42.805,6.029,CST-1368DR,9302,13013,15562,0.014,551
2019-05-29T08:25:13,42.805,6.029,CST-1368DR,9302,13014,15564,0.013,551
2019-05-29T08:28:15,42.805,6.029,CST-1368DR,9301,13014,15566,0.013,551
2019-05-29T08:31:16,42.805,6.029,CST-1368DR,9302,13012,15562,0.014,551
2019-05-29T08:34:17,42.805,6.029,CST-1368DR,9301,13012,15564,0.013,551
2019-05-29T08:37:19,42.805,6.029,CST-1368DR,9301,13012,15563,0.014,551
2019-05-29T08:40:20,42.805,6.029,CST-1368DR,9301,13012,15563,0.014,551
2019-05-29T08:43:22,42.805,6.029,CST-1368DR,9301,13012,15563,0.014,551
2019-05-29T08:46:23,42.805,6.029,CST-1368DR,9301,13013,15564,0.013,551
2019-05-29T08:49:24,42.805,6.029,CST-1368DR,9301,13011,15563,0.014,551
2019-05-29T08:52:26,42.805,6.029,CST-1368DR,9301,13012,15563,0.014,551
2019-05-29T08:55:27,42.805,6.029,CST-1368DR,9301,13011,15562,0.014,551
2019-05-29T08:58:29,42.805,6.029,CST-1368DR,9301,13012,15563,0.014,551
2019-05-29T09:01:30,42.805,6.029,CST-1368DR,9301,13012,15563,0.014,551
2019-05-29T09:04:32,42.805,6.029,CST-1368DR,9301,13011,15562,0.014,551
2019-05-29T09:07:33,42.805,6.029,CST-1368DR,9301,13012,15564,0.013,550
2019-05-29T09:10:34,42.805,6.029,CST-1368DR,9301,13012,15563,0.014,551
2019-05-29T09:13:36,42.805,6.029,CST-1368DR,9301,13011,15563,0.014,551
2019-05-29T09:16:37,42.805,6.029,CST-1368DR,9301,13012,15563,0.014,551
2019-05-29T09:19:39,42.805,6.029,CST-1368DR,9301,13011,15563,0.014,551
2019-05-29T09:22:40,42.805,6.029,CST-1368DR,9301,13012,15563,0.014,551
2019-05-29T09:25:41,42.805,6.029,CST-1368DR,9301,13011,15562,0.014,551
2019-05-29T09:28:43,42.805,6.029,CST-1368DR,9301,13009,15560,0.014,551
2019-05-29T09:31:44,42.805,6.029,CST-1368DR,9301,13011,15562,0.014,551
2019-05-29T09:34:46,42.805,6.029,CST-1368DR,9301,13011,15562,0.014,551
2019-05-29T09:37:47,42.805,6.029,CST-1368DR,9301,13011,15562,0.014,551
2019-05-29T09:40:48,42.805,6.029,CST-1368DR,9301,13012,15563,0.014,551
2019-05-29T09:43:50,42.805,6.029,CST-1368DR,9301,13010,15561,0.014,551
2019-05-29T09:46:51,42.805,6.029,CST-1368DR,9301,13011,15563,0.014,551
2019-05-29T09:49:53,42.805,6.029,CST-1368DR,9301,13009,15560,0.014,551
2019-05-29T09:52:54,42.805,6.029,CST-1368DR,9301,13011,15562,0.014,550
2019-05-29T09:55:55,42.805,6.029,CST-1368DR,9301,13011,15562,0.014,550
2019-05-29T09:58:57,42.805,6.029,CST-1368DR,9301,13010,15561,0.014,551
2019-05-29T10:01:58,42.805,6.029,CST-1368DR,9301,13009,15559,0.015,551
2019-05-29T10:05:00,42.805,6.029,CST-1368DR,9301,13012,15563,0.014,550
2019-05-29T10:08:01,42.805,6.029,CST-1368DR,9300,13011,15563,0.014,551
2019-05-29T10:11:03,42.805,6.029,CST-1368DR,9300,13009,15561,0.014,551
2019-05-29T10:14:04,42.805,6.029,CST-1368DR,9300,13010,15562,0.014,550
2019-05-29T10:17:05,42.805,6.029,CST-1368DR,9300,13011,15563,0.014,551
2019-05-29T10:20:07,42.805,6.029,CST-1368DR,9300,13010,15562,0.014,551
2019-05-29T10:23:08,42.805,6.029,CST-1368DR,9300,13010,15562,0.014,551
2019-05-29T10:26:10,42.805,6.029,CST-1368DR,9300,13011,15563,0.014,550
2019-05-29T10:29:11,42.805,6.029,CST-1368DR,9300,13009,15561,0.014,551
2019-05-29T10:32:12,42.805,6.029,CST-1368DR,9300,13009,15561,0.014,551
2019-05-29T10:35:14,42.805,6.029,CST-1368DR,9300,13009,15562,0.014,551
2019-05-29T10:38:15,42.805,6.029,CST-1368DR,9300,13010,15562,0.014,551
2019-05-29T10:41:17,42.805,6.029,CST-1368DR,9300,13011,15563,0.014,550
2019-05-29T10:44:18,42.805,6.029,CST-1368DR,9300,13002,15553,0.016,551
2019-05-29T10:47:19,42.805,6.029,CST-1368DR,9300,13011,15563,0.014,551
2019-05-29T10:50:21,42.805,6.029,CST-1368DR,9300,13009,15561,0.014,551
2019-05-29T10:53:22,42.805,6.029,CST-1368DR,9300,13010,15563,0.014,551
2019-05-29T10:56:24,42.805,6.029,CST-1368DR,9300,13006,15558,0.015,551
2019-05-29T10:59:25,42.805,6.029,CST-1368DR,9300,13005,15557,0.015,551
2019-05-29T11:02:26,42.805,6.029,CST-1368DR,9300,13011,15563,0.014,551
2019-05-29T11:05:28,42.805,6.029,CST-1368DR,9300,13009,15562,0.014,551
2019-05-29T11:08:29,42.805,6.029,CST-1368DR,9300,13010,15562,0.014,551
2019-05-29T11:11:31,42.805,6.029,CST-1368DR,9300,13007,15559,0.015,551
2019-05-29T11:14:32,42.805,6.029,CST-1368DR,9300,13008,15560,0.014,551
2019-05-29T11:17:34,42.805,6.029,CST-1368DR,9300,13011,15563,0.014,551
2019-05-29T11:20:35,42.805,6.029,CST-1368DR,9300,13009,15561,0.014,551
2019-05-29T11:23:36,42.805,6.029,CST-1368DR,9300,13009,15561,0.014,551
2019-05-29T11:26:38,42.805,6.029,CST-1368DR,9300,13009,15561,0.014,551
2019-05-29T11:29:39,42.805,6.029,CST-1368DR,9300,13008,15560,0.014,551
2019-05-29T11:32:41,42.805,6.029,CST-1368DR,9300,13010,15562,0.014,551
2019-05-29T11:35:42,42.805,6.029,CST-1368DR,9299,13011,15565,0.013,551
2019-05-29T11:38:43,42.805,6.029,CST-1368DR,9300,13010,15562,0.014,551
2019-05-29T11:41:45,42.805,6.029,CST-1368DR,9300,13009,15561,0.014,551
2019-05-29T11:44:46,42.805,6.029,CST-1368DR,9300,13008,15560,0.014,551
2019-05-29T11:47:48,42.805,6.029,CST-1368DR,9299,13009,15562,0.014,551
2019-05-29T11:50:49,42.805,6.029,CST-1368DR,9299,13009,15562,0.014,551
2019-05-29T11:53:50,42.805,6.029,CST-1368DR,9299,13010,15564,0.013,551
2019-05-29T11:56:52,42.805,6.029,CST-1368DR,9299,13009,15562,0.014,551
2019-05-29T11:59:53,42.805,6.029,CST-1368DR,9299,13006,15559,0.015,551
2019-05-29T12:02:55,42.805,6.029,CST-1368DR,9299,13007,15561,0.014,551
2019-05-29T12:05:56,42.805,6.029,CST-1368DR,9299,13006,15559,0.015,551
2019-05-29T12:08:58,42.805,6.029,CST-1368DR,9299,13006,15559,0.015,551
2019-05-29T12:11:59,42.805,6.029,CST-1368DR,9299,13008,15562,0.014,551
2019-05-29T12:15:00,42.805,6.029,CST-1368DR,9299,13010,15564,0.013,551
2019-05-29T12:18:02,42.805,6.029,CST-1368DR,9299,13010,15564,0.013,551
2019-05-29T12:21:03,42.805,6.029,CST-1368DR,9299,13007,15561,0.014,551
2019-05-29T12:24:05,42.805,6.029,CST-1368DR,9299,13009,15563,0.014,551
2019-05-29T12:27:06,42.805,6.029,CST-1368DR,9299,13008,15562,0.014,551
2019-05-29T12:30:07,42.805,6.029,CST-1368DR,9299,13009,15563,0.014,551
2019-05-29T12:33:09,42.805,6.029,CST-1368DR,9299,13010,15564,0.013,550
2019-05-29T12:36:10,42.805,6.029,CST-1368DR,9299,13009,15563,0.014,551
2019-05-29T12:39:12,42.805,6.029,CST-1368DR,9299,13008,15562,0.014,551
2019-05-29T12:42:13,42.805,6.029,CST-1368DR,9299,13008,15562,0.014,551
2019-05-29T12:45:14,42.805,6.029,CST-1368DR,9299,13008,15562,0.014,551
2019-05-29T12:48:16,42.805,6.029,CST-1368DR,9299,13007,15561,0.014,551
2019-05-29T12:51:17,42.805,6.029,CST-1368DR,9299,13008,15562,0.014,550
2019-05-29T12:54:19,42.805,6.029,CST-1368DR,9299,13007,15561,0.014,551
2019-05-29T12:57:20,42.805,6.029,CST-1368DR,9299,13009,15563,0.014,551
2019-05-29T13:00:21,42.805,6.029,CST-1368DR,9299,13008,15562,0.014,551
2019-05-29T13:03:23,42.805,6.029,CST-1368DR,9299,13009,15562,0.014,551
2019-05-29T13:06:24,42.805,6.029,CST-1368DR,9299,13007,15560,0.014,550
2019-05-29T13:09:26,42.805,6.029,CST-1368DR,9299,13008,15562,0.014,551
2019-05-29T13:12:27,42.805,6.029,CST-1368DR,9299,13009,15563,0.014,551
2019-05-29T13:15:29,42.805,6.029,CST-1368DR,9299,13007,15560,0.014,551
2019-05-29T13:18:30,42.805,6.029,CST-1368DR,9299,13008,15562,0.014,550
2019-05-29T13:21:31,42.805,6.029,CST-1368DR,9298,13007,15562,0.014,551
2019-05-29T13:24:33,42.805,6.029,CST-1368DR,9299,13007,15561,0.014,551
2019-05-29T13:27:34,42.805,6.029,CST-1368DR,9298,13007,15562,0.014,551
2019-05-29T13:30:36,42.805,6.029,CST-1368DR,9298,13007,15562,0.014,550
2019-05-29T13:33:37,42.805,6.029,CST-1368DR,9298,13008,15564,0.013,551
2019-05-29T13:36:38,42.805,6.029,CST-1368DR,9298,13009,15564,0.013,551
2019-05-29T13:39:40,42.805,6.029,CST-1368DR,9298,13007,15562,0.014,551
2019-05-29T13:42:41,42.805,6.029,CST-1368DR,9298,13008,15564,0.013,551
2019-05-29T13:45:43,42.805,6.029,CST-1368DR,9298,13005,15560,0.014,551
2019-05-29T13:48:44,42.805,6.029,CST-1368DR,9298,13004,15558,0.015,551
2019-05-29T13:51:45,42.805,6.029,CST-1368DR,9298,13008,15563,0.014,551
2019-05-29T13:54:47,42.805,6.029,CST-1368DR,9298,13007,15562,0.014,551
2019-05-29T13:57:48,42.805,6.029,CST-1368DR,9298,13008,15563,0.014,551
2019-05-29T14:00:50,42.805,6.029,CST-1368DR,9298,13009,15564,0.013,551
2019-05-29T14:03:51,42.805,6.029,CST-1368DR,9298,13005,15559,0.015,551
2019-05-29T14:06:52,42.805,6.029,CST-1368DR,9298,13008,15563,0.014,550
2019-05-29T14:09:54,42.805,6.029,CST-1368DR,9298,13006,15561,0.014,551
2019-05-29T14:12:55,42.805,6.029,CST-1368DR,9298,13008,15563,0.014,551
2019-05-29T14:15:57,42.805,6.029,CST-1368DR,9298,13004,15558,0.015,551
2019-05-29T14:18:58,42.805,6.029,CST-1368DR,9298,13007,15562,0.014,551
2019-05-29T14:22:00,42.805,6.029,CST-1368DR,9298,13005,15559,0.015,551
2019-05-29T14:25:01,42.805,6.029,CST-1368DR,9298,13004,15558,0.015,550
2019-05-29T14:28:02,42.805,6.029,CST-1368DR,9297,13007,15564,0.013,551
2019-05-29T14:31:04,42.805,6.029,CST-1368DR,9297,13006,15562,0.014,551
2019-05-29T14:34:05,42.805,6.029,CST-1368DR,9297,13007,15563,0.014,551
2019-05-29T14:37:07,42.805,6.029,CST-1368DR,9297,13005,15561,0.014,551
2019-05-29T14:40:08,42.805,6.029,CST-1368DR,9297,13007,15564,0.013,551
2019-05-29T14:43:09,42.805,6.029,CST-1368DR,9297,13006,15562,0.014,550
2019-05-29T14:46:11,42.805,6.029,CST-1368DR,9297,13006,15563,0.014,551
2019-05-29T14:49:12,42.805,6.029,CST-1368DR,9297,13007,15564,0.013,551
2019-05-29T14:52:14,42.805,6.029,CST-1368DR,9297,13006,15563,0.014,551
2019-05-29T14:55:15,42.805,6.029,CST-1368DR,9297,13008,15564,0.013,551
2019-05-29T14:58:16,42.805,6.029,CST-1368DR,9297,13006,15562,0.014,551
2019-05-29T15:01:18,42.805,6.029,CST-1368DR,9297,13006,15563,0.014,551
2019-05-29T15:04:19,42.805,6.029,CST-1368DR,9297,13006,15562,0.014,551
2019-05-29T15:07:21,42.805,6.029,CST-1368DR,9297,13007,15563,0.014,551
2019-05-29T15:10:22,42.805,6.029,CST-1368DR,9297,13006,15562,0.014,550
2019-05-29T15:13:23,42.805,6.029,CST-1368DR,9297,13007,15563,0.014,551
2019-05-29T15:16:25,42.805,6.029,CST-1368DR,9297,13006,15562,0.014,551
2019-05-29T15:19:26,42.805,6.029,CST-1368DR,9297,13006,15562,0.014,550
2019-05-29T15:22:28,42.805,6.029,CST-1368DR,9297,13006,15562,0.014,551
2019-05-29T15:25:29,42.805,6.029,CST-1368DR,9297,13006,15562,0.014,551
2019-05-29T15:28:31,42.805,6.029,CST-1368DR,9297,13007,15564,0.013,551
2019-05-29T15:31:32,42.805,6.029,CST-1368DR,9297,13004,15560,0.014,551
2019-05-29T15:34:33,42.805,6.029,CST-1368DR,9297,13002,15558,0.015,551
2019-05-29T15:37:35,42.805,6.029,CST-1368DR,9297,13006,15562,0.014,551
2019-05-29T15:40:36,42.805,6.029,CST-1368DR,9297,13007,15563,0.014,551
2019-05-29T15:43:38,42.805,6.029,CST-1368DR,9297,13006,15562,0.014,551
2019-05-29T15:46:39,42.805,6.029,CST-1368DR,9297,13004,15560,0.014,551
2019-05-29T15:49:40,42.805,6.029,CST-1368DR,9297,13006,15562,0.014,551
2019-05-29T15:52:42,42.805,6.029,CST-1368DR,9297,13005,15561,0.014,551
2019-05-29T15:55:43,42.805,6.029,CST-1368DR,9297,13005,15561,0.014,551
2019-05-29T15:58:45,42.805,6.029,CST-1368DR,9297,13005,15561,0.014,551
2019-05-29T16:01:46,42.805,6.029,CST-1368DR,9297,13005,15561,0.014,551
2019-05-29T16:04:47,42.805,6.029,CST-1368DR,9297,13003,15559,0.015,551
2019-05-29T16:07:49,42.805,6.029,CST-1368DR,9297,13003,15559,0.015,551
2019-05-29T16:10:50,42.805,6.029,CST-1368DR,9296,12999,15556,0.015,551
2019-05-29T16:13:52,42.805,6.029,CST-1368DR,9297,13004,15560,0.014,551
2019-05-29T16:16:53,42.805,6.029,CST-1368DR,9296,13001,15557,0.015,551
2019-05-29T16:19:54,42.805,6.029,CST-1368DR,9296,13004,15562,0.014,551
2019-05-29T16:22:56,42.805,6.029,CST-1368DR,9296,13003,15560,0.014,551
2019-05-29T16:25:57,42.805,6.029,CST-1368DR,9296,13004,15562,0.014,551
2019-05-29T16:28:59,42.805,6.029,CST-1368DR,9296,13001,15558,0.015,550
2019-05-29T16:32:00,42.805,6.029,CST-1368DR,9296,12996,15552,0.016,551
2019-05-29T16:35:02,42.805,6.029,CST-1368DR,9296,12999,15556,0.015,551